Regional Weather Roundup
Issued by NWS

Home | Current Version | Previous Version | Text Only | Print | Product List | Glossary On
Versions: 1 2 3 4 5 6 7 8 9 10 11 12 13 14 15 16 17 18 19 20 21 22 23 24 25 26 27 28 29 30 31 32 33 34 35 36 37 38 39 40 41 42 43 44 45 46 47 48 49 50
000
ASUS45 KTFX 010310
RWRMT
MONTANA REGIONAL WEATHER ROUNDUP
NATIONAL WEATHER SERVICE GREAT FALLS MT
900 PM MDT SUN APR 30 2017

NOTE: "FAIR" INDICATES FEW OR NO CLOUDS BELOW 12000 FEET WITH NO
SIGNIFICANT WEATHER AND/OR OBSTRUCTIONS TO VISIBILITY.

MTZ001>007-043-010400-
WEST OF THE DIVIDE

CITY           SKY/WX    TMP DP  RH WIND       PRES   REMARKS
KALISPELL      LGT RAIN  46  39  76 SW9       30.01R
MISSOULA       CLOUDY    48  33  56 NW14G23   30.07R
BUTTE          CLOUDY    45  23  42 NW18G25   30.01R
MULLAN PASS    FLURRIES  34  25  69 W7        30.05S WCI  28
ANACONDA         N/A     46  27  46 W13       30.02R
DEER LODGE       N/A     46  28  49 NW9G16    30.05R
EUREKA           N/A     46  36  66 SE6       29.99R
HAMILTON         N/A     48  34  57 NE3       30.06R
LIBBY            N/A     48  37  66 CALM      30.01S
PLAINS           N/A     50  31  48 W5        30.05
RONAN            N/A     48  37  65 SE5       30.08S
$$

MTZ008-052>055-010400-
SOUTHWEST MONTANA

CITY           SKY/WX    TMP DP  RH WIND       PRES   REMARKS
BOZEMAN        CLOUDY    48  33  56 NW10      29.95R
DILLON         CLOUDY    47  30  51 SW14      30.00R
W YELLOWSTONE  CLOUDY    39  34  81 E3        30.02S
THREE FORKS      N/A     53  53 100 NW8       29.96R
TWIN BRIDGES     N/A     49  25  39 CALM      29.98
$$

MTZ009-010-012-014-046-048-049-054-010400-
EAST SLOPES AND CENTRAL MONTANA

CITY           SKY/WX    TMP DP  RH WIND       PRES   REMARKS
CUT BANK       LGT RAIN  44  35  70 W14       29.92R
GREAT FALLS    CLOUDY    48  32  53 W14       29.93R
MALMSTROM AFB  PTCLDY    51  30  44 W9        29.92R
HELENA         CLEAR     50  27  40 W13       29.96R
AUGUSTA          N/A     42  30  62 W9        29.94R
BOWMANS CRNR     N/A     41  32  69 W14       29.93S
CHOTEAU          N/A     46  30  53 NW8       29.95R
FAIRFIELD        N/A     45  31  58 W13       29.93R
POWER            N/A     41  29  60 W8        29.92R
RAYNESFORD     MOCLDY    49  35  56 W21G28    29.92R
ULM            MOCLDY    48  34  59 W9        29.94R
$$

MTZ011-013-016-021-045-047-050-051-010400-
NORTH CENTRAL MONTANA

CITY           SKY/WX    TMP DP  RH WIND       PRES   REMARKS
HAVRE          CLOUDY    53  30  41 W15       29.83R
LEWISTOWN      LGT RAIN  47  35  63 NW10      29.91R
CHINOOK          N/A     57  27  30 W12       29.81S
DENTON         MOCLDY    47  36  65 W24       29.86R
FORT BENTON      N/A     54  30  40 MISG      29.89R
GEYSER         LGT RAIN  46  37  70 W10       29.91R
GRASS RANGE      N/A     44  38  78 W10       29.87R
JUDITH GAP     CLOUDY    46  31  54 W18G24    29.91R
STANFORD       MOCLDY    46  33  62 NW21      29.91R
WINIFRED       MOCLDY    49  35  58 W9        29.88R
$$

MTZ017>020-022>027-061-062-010400-
NORTHEAST MONTANA

CITY           SKY/WX    TMP DP  RH WIND       PRES   REMARKS
GLASGOW        CLOUDY    48  42  80 S8        29.80S
JORDAN           N/A     50  40  68 SW3       29.84R
SIDNEY         CLEAR     51  32  48 SW9       29.80R
WOLF POINT     CLOUDY    55  41  59 W12       29.82R
PLENTYWOOD       N/A     55  32  41 CALM      29.78R
POPLAR           N/A     55  41  58 W22G28    29.82R
SCOBEY           N/A     54  34  46 W6        29.81
$$

MTZ028>42-056>058-010400-
SOUTHCENTRAL AND SOUTHEAST MONTANA

CITY           SKY/WX    TMP DP  RH WIND       PRES   REMARKS
BAKER            N/A    N/A N/A N/A MISG      29.84S
BILLINGS       CLOUDY    50  41  71 NW6       29.89R
LIVINGSTON     MOCLDY    51  33  50 W17       29.91S
MILES CITY     LGT RAIN  51  44  77 W12       29.87R
BIG TIMBER     CLEAR     46  36  66 W8        29.94R
EKALAKA          N/A     47  30  51 S2        29.85
LAUREL           N/A     51  36  56 CALM      29.91S
ROUNDUP          N/A     50  37  60 NW5       29.82R
$$

REGIONAL REPORTS...DAKOTAS

CITY           SKY/WX    TMP DP  RH WIND       PRES   REMARKS
WILLISTON      MOCLDY    56  31  38 S3        29.79S
MINOT          CLEAR     49  26  41 E9        29.82S
DICKINSON      CLEAR     49  17  28 S5        29.81S
BEACH            N/A     50  32  50 SW6       29.86R
TIOGA          CLOUDY    54  25  32 S12       29.81S
WATFORD CITY   CLOUDY    54  28  37 S3        29.79S
BISMARCK       MOCLDY    50  27  40 SE7       29.86S
GRAND FORKS    PTCLDY    47  38  71 CALM      29.87F
FARGO          CLOUDY    48  22  35 E6        29.84F
BUFFALO SD       N/A     56  18  22 SE3       29.78F
RAPID CITY     CLOUDY    42  23  46 N9        29.85S
$$

REGIONAL REPORTS...WYOMING/IDAHO/WASHINGTON

CITY           SKY/WX    TMP DP  RH WIND       PRES   REMARKS
GILLETTE       CLEAR     40  34  79 W9        29.89S
SHERIDAN       LGT RAIN  48  39  71 SW8       29.90S
BUFFALO WY     CLOUDY    45  31  58 NW13      29.93R
CODY           CLOUDY    51  29  42 NW6       29.94R
YELLOWSTONE LA   N/A     34  31  88 CALM      30.05R
IDAHO FALLS    CLOUDY    52  37  56 SW18      29.97F
SALMON         CLOUDY   N/A N/A N/A MISG        N/A
BOISE          CLOUDY    61  38  42 NW8       30.04R
SPOKANE        PTCLDY    54  29  38 SW12      30.04S
$$

REGIONAL REPORTS...ALBERTA

CITY           SKY/WX    TMP DP  RH WIND       PRES   REMARKS
EDMONTON         N/A     45  39  81 N10G20    29.89R
CALGARY        LGT RAIN  43  34  70 NW13      29.93R
LETHBRIDGE     MOCLDY    46  36  66 NW7       29.91R
MEDICINE HAT   MOCLDY    46  41  81 SW7       29.84F
MILK RIVER       N/A     45  36  70 N9          N/A
ONEFOUR          N/A     45  37  76 NW21G26     N/A
$$

REGIONAL REPORTS...SASKATCHEWAN

CITY           SKY/WX    TMP DP  RH WIND       PRES   REMARKS
SWIFT CURRENT  PTCLDY    48  34  57 W7        29.74S
REGINA         MOCLDY    52  39  62 N6        29.76S
SASKATOON      CLOUDY    46  41  81 E10       29.80R
CYPRESS HILLS    N/A     37  34  87 W9G18       N/A  WCI  31
VAL MARIE        N/A     52  34  50 N13         N/A
$$



USA.gov is the U.S. government's official web portal to all federal, state and local government web resources and services.